Regional Weather Roundup
Issued by NWS Charleston, SC

Current Version | Previous Version | Text Only | Print | Product List | Glossary Off
Versions: 1 2 3 4 5 6 7 8 9 10 11 12 13 14 15 16 17 18 19 20 21 22 23 24 25 26 27 28 29 30 31 32 33 34 35 36 37 38 39 40 41 42 43 44 45 46 47 48 49 50

000
ASUS42 KCHS 060611
RWRCHS

REGIONAL WEATHER ROUNDUP
NATIONAL WEATHER SERVICE CHARLESTON SC
100 AM EST FRI MAR 06 2015

NOTE: "FAIR" INDICATES FEW OR NO CLOUDS BELOW 12,000 FEET WITH NO
SIGNIFICANT WEATHER AND/OR OBSTRUCTIONS TO VISIBILITY.

NOT ALL STATIONS ARE QUALITY CONTROLLED BY THE NATIONAL
WEATHER SERVICE. USE DATA WITH CAUTION...ESPECIALLY
DEWPOINT OBSERVATIONS.

SCZ027-030-031-034>040-042>050-060700-
...SOUTHEAST SOUTH CAROLINA...

CITY           SKY/WX    TMP DP  RH WIND       PRES   REMARKS
N CHARLESTON   CLOUDY    42  39  89 NE15G28   30.25R
6HR MIN TEMP:  42; 6HR MAX TEMP:  65; 6HR PCP:  0.09;

WATERFRONT PRK   N/A     43 N/A N/A N40         N/A
MOUNT PLEASANT CLOUDY    43  39  87 N13G23    30.25R FOG
PINOPOLIS      NOT AVBL
MONCKS CORNER  CLOUDY    41  37  87 NE10G18   30.27R FOG
SUMMERVILLE    CLOUDY    41  41 100 N12G21    30.26S FOG
BEAUFORT MCAS  CLOUDY    46  43  89 N12G25    30.22R
6HR MIN TEMP:  46; 6HR MAX TEMP:  65; 6HR PCP:  0.13;

BEAUFORT ARPT  LGT RAIN  45  45 100 N23       30.22R
HILTON HEAD IS DRIZZLE   48  46  93 N15G22    30.23R
WALTERBORO     LGT RAIN  43  41  93 N13G20    30.27S
ALLENDALE      MIX PCPN  43  41  93 NE9G20    30.26R

...SOUTHERN MIDLANDS AND PEE DEE...

CITY           SKY/WX    TMP DP  RH WIND       PRES   REMARKS
GEORGETOWN     NOT AVBL
KINGSTREE      NOT AVBL
ORANGEBURG     CLOUDY    40  33  76 NE15      30.28S WCI  32
6HR MIN TEMP:  40; 6HR MAX TEMP:  62; 6HR PCP:  0.03;

BARNWELL       MOCLDY    43  39  87 NE17G24   30.28R
AIKEN          CLOUDY    39  34  81 NE12      30.30S WCI  32
MANNING        CLOUDY    41  32  70 NE12G20   30.28R
COLUMBIA       CLOUDY    41  33  73 NE9G21    30.30R
6HR MIN TEMP:  41; 6HR MAX TEMP:  52; 6HR PCP: TRACE;

SUMTER         CLOUDY    38  33  84 NE14      30.28S WCI  30
6HR MIN TEMP:  38; 6HR MAX TEMP:  46; 6HR PCP:  0.05;

FLORENCE       CLOUDY    38  31  76 NE14      30.29S WCI  30
6HR MIN TEMP:  38; 6HR MAX TEMP:  44; 6HR PCP:  0.07;

MYRTLE BEACH   CLOUDY    39  34  81 N17G25    30.29R WCI  30
N MYRTLE BEACH CLOUDY    38  34  85 N14G25    30.26R WCI  30
6HR MIN TEMP:  38; 6HR MAX TEMP:  46; 6HR PCP:  0.27;


$$

GAZ063-065-086>088-099>101-113>116-118-119-134>141-150-060700-
...SOUTHEAST GEORGIA...

CITY           SKY/WX    TMP DP  RH WIND       PRES   REMARKS
SAVANNAH ARPT  CLOUDY    50  46  87 NE12      30.21R
6HR MIN TEMP:  51; 6HR MAX TEMP:  64; 6HR PCP:  0.09;

HUNTER AAF     LGT RAIN  52  50  93 N14       30.19R
6HR MIN TEMP:  54; 6HR MAX TEMP:  64; 6HR PCP:  0.13;

FORT STEWART   CLOUDY    51  46  82 NW7       30.19S
6HR MIN TEMP:  51; 6HR MAX TEMP:  64; 6HR PCP:  0.05;

STATESBORO     DRIZZLE   48  48 100 N8        30.23R
SYLVANIA       CLOUDY    46  46  99 NE9       30.24R FOG
CLAXTON        CLOUDY    48  45  87 NW6       30.22F

...CSRA...CENTRAL AND FAR SOUTHEAST GEORGIA...

CITY           SKY/WX    TMP DP  RH WIND       PRES   REMARKS
THOMSON        CLOUDY    45  43  91 NE6       30.32R
AUGUSTA-BUSH   CLOUDY    43  37  79 E15       30.28R
6HR MIN TEMP:  43; 6HR MAX TEMP:  60; 6HR PCP: TRACE;

AUGUSTA-DANIEL CLOUDY    44  37  76 NE16G24   30.28R
SWAINSBORO     CLOUDY    46  34  61 NW7       30.25S
VIDALIA        CLOUDY    45  41  87 NW7       30.24S
EASTMAN        MOCLDY    42  38  84 N7        30.29R
HAZLEHURST     MOCLDY    46  42  85 N10       30.24R
ALMA           CLEAR     47  40  76 NW8       30.23R
6HR MIN TEMP:  47; 6HR MAX TEMP:  63; 6HR PCP:  0.01;

WAYCROSS       PTCLDY    52  46  80 N10       30.22S
JESUP          FAIR      52  46  82 N6        30.21S
BAXLEY         FAIR      46  43  87 N5        30.22S
BRUNSWICK      MOCLDY    55  50  82 NW10G17   30.20R
SAINT SIMONS   CLOUDY    58  53  84 NW12G17   30.18R
6HR MIN TEMP:  58; 6HR MAX TEMP:  72; 6HR PCP:  0.06;


$$

SCZ027-028-034-036>038-045-046-048>050-GAZ119-141-060700-
...LAKE AND SUPPLEMENTAL COASTAL OBSERVATIONS...

STATION/POSITION TIME  TEMP    WIND        PRES    WAVE   SWELL
                       AIR SEA DIR/SP/G            HT/PER HT/PER/DIR
                 (UTC) (F)     (DEG/KT/KT) (MB)    (FT/S) (FT/S/D)
UPR LAKE MARION  NOT AVBL
WINYAH BAY       0445   41     360/ 12     1023.0
LAKE MURRAY      0500   40      40/  8/ 10 1025.1F
ACE BASIN NERRS  NOT AVBL
FORT PULASKI     0500   58 54  300/ 11/ 14 1021.4F
SAPELO ISLAND    0500   59     300/ 11     1021.0S

$$

ANZ835-935-AMZ111-154-330-350-352-354-370-450-454-472-060700-
...C-MAN AND BUOY OBSERVATIONS...

STATION/POSITION TIME  TEMP    WIND        PRES    WAVE   SWELL
                       AIR SEA DIR/SP/G            HT/PER HT/PER/DIR
                 (UTC) (F)     (DEG/KT/KT) (MB)    (FT/S) (FT/S/D)
BUOY 41004       0550   49 68   20/ 29/ 35 1020.4R   8/ 6   2/11
BUOY 41008       0550   56 55  320/ 14/ 17 1021.4R   2/10   2/ 90/10
FOLLY BEACH CMAN 0600   44      10/ 20/ 22 1024.1R
CAPERS NEARSHORE 0500   46      30/ 21/ 25   N/A
FRIPP NEARSHORE  0500   51      40/ 19/ 23 1020.5R


STATION/POSITION TIME  TEMP    WIND        PRES    WAVE   SWELL
                       AIR SEA DIR/SP/G            HT/PER HT/PER/DIR
                 (UTC) (F)     (DEG/KT/KT) (MB)    (FT/S) (FT/S/D)
5E ST. MARYS GA  0521      55                N/A     2/11   2/100/11
FRYING PAN BUOY  0550   44 64   10/ 29/ 35 1022.9R   9/ 6   2/ 40/10
BUOY 41025       NOT AVBL
CAPE LOOKOUT NC  0600          360/ 23/ 30 1024.8R
BUOY 41002       0550   74 73  240/ 19/ 25 1019.1F   7/ 8   3/100/10
BUOY 41010       0520   75 75  200/ 12/ 14 1020.6F
ST AUGUSTINE FL  0600   60     350/  5/  5 1021.4R


$$


USA.gov is the U.S. government's official web portal to all federal, state and local government web resources and services.